軌道要素
Epoch 2017 Mar. 28.0 TT = JDT 2457840.5
T 2017 Apr. 8.21388 TT Rudenko
q 3.3273595 (2000.0) P Q
n 0.11738491 Peri. 178.38102 +0.78839003 +0.61459991
a 4.1310570 Node 143.65272 -0.56491607 +0.74042576
e 0.1945501 Incl. 2.57336 -0.24353849 +0.27209674
P 8.40
From 79 observations 2017 July 18-2022 Feb. 10, mean residual 0".4.
|